Weather History for Grosse Ile, MI

Change the Weather History Date:

Thursday, March 28, 2013

  Actual Average (KDTW) Record (KDTW)
Temperature  
Mean Temperature 40 °F 42 °F  
Max Temperature 48 °F 51 °F 82 °F (1945)
Min Temperature 32 °F 33 °F 4 °F (1934)
Degree Days  
Heating Degree Days 25 23  
Month to date heating degree days 795  
Since 1 July heating degree days 5348  
Cooling Degree Days 0 0  
Month to date cooling degree days 0  
Year to date cooling degree days 0  
Moisture  
Dew Point 26 °F    
Average Humidity 59    
Maximum Humidity 87    
Minimum Humidity 32    
Precipitation  
Precipitation 0.00 in 0.08 in 1.69 in (1985)
Month to date precipitation 2.03  
Year to date precipitation 6.01  
Snow  
Snow 0.00 in 0.20 in 2.50 in (1964)
Month to date snowfall 6.5  
Since 1 July snowfall 40.4  
Snow Depth -    
Sea Level Pressure  
Sea Level Pressure 30.21 in    
Wind  
Wind Speed 9 mph (WNW)    
Max Wind Speed 13 mph    
Max Gust Speed 20 mph    
Visibility 10 miles    
Events      
T = Trace of Precipitation, MM = Missing Value Source: NWS Daily Summary

Daily Weather History Graph

Daily Weather History Graph

Search for Another Location

Airport:

Trip Planner

Search our weather history database for the weather conditions in past years. The results will help you decide how hot, cold, wet, or windy it might be!

Date:

Astronomy

Mar. 28, 2013 Rise Set
Actual Time 7:21 AM EDT 7:54 PM EDT
Civil Twilight 6:53 AM EDT 8:22 PM EDT
Nautical Twilight 6:20 AM EDT 8:55 PM EDT
Astronomical Twilight 5:46 AM EDT 9:29 PM EDT
Moon 9:47 PM EDT (3/28) 7:47 AM EDT (3/28)
Length of Visible Light 13h 28m
Length of Day
12h 32m
Full, 98% of the Moon is Illuminated
Mar 28
Full
Apr 3
Last Quarter
Apr 10
New
Apr 18
First Quarter
Apr 25
Full

Hourly Weather History & Observations

Time (EDT) Temp. Windchill Dew Point Humidity Pressure Visibility Wind Dir Wind Speed Gust Speed Precip Events Conditions
12:14 AM 37.4 °F 31.4 °F 23.0 °F 56% 30.18 in 10.0 mi WNW 8.1 mph - N/A   Overcast
12:34 AM 39.2 °F 32.0 °F 23.0 °F 52% 30.18 in 10.0 mi WNW 11.5 mph 19.6 mph N/A   Overcast
12:54 AM 39.2 °F 32.0 °F 23.0 °F 52% 30.18 in 10.0 mi WNW 11.5 mph - N/A   Overcast
1:14 AM 37.4 °F 30.8 °F 23.0 °F 56% 30.18 in 10.0 mi WNW 9.2 mph - N/A   Overcast
1:34 AM 37.4 °F 30.8 °F 23.0 °F 56% 30.19 in 10.0 mi WNW 9.2 mph - N/A   Overcast
1:55 AM 37.4 °F 29.3 °F 23.0 °F 56% 30.19 in 10.0 mi WNW 12.7 mph - N/A   Overcast
2:14 AM 37.4 °F 29.3 °F 21.2 °F 52% 30.19 in 10.0 mi WNW 12.7 mph 17.3 mph N/A   Overcast
2:34 AM 37.4 °F 30.3 °F 21.2 °F 52% 30.19 in 10.0 mi WNW 10.4 mph 17.3 mph N/A   Overcast
2:54 AM 37.4 °F 29.8 °F 21.2 °F 52% 30.19 in 10.0 mi WNW 11.5 mph 18.4 mph N/A   Overcast
3:14 AM 35.6 °F 27.5 °F 21.2 °F 56% 30.19 in 10.0 mi WNW 11.5 mph - N/A   Mostly Cloudy
3:34 AM 35.6 °F 28.0 °F 21.2 °F 56% 30.18 in 10.0 mi WNW 10.4 mph - N/A   Overcast
3:54 AM 35.6 °F 27.1 °F 21.2 °F 56% 30.18 in 10.0 mi WNW 12.7 mph - N/A   Overcast
4:14 AM 35.6 °F 27.1 °F 21.2 °F 56% 30.18 in 10.0 mi WNW 12.7 mph 17.3 mph N/A   Overcast
4:34 AM 35.6 °F 27.1 °F 21.2 °F 56% 30.18 in 10.0 mi WNW 12.7 mph - N/A   Overcast
4:54 AM 35.6 °F 27.1 °F 21.2 °F 56% 30.18 in 10.0 mi WNW 12.7 mph - N/A   Scattered Clouds
5:14 AM 33.8 °F 26.4 °F 21.2 °F 60% 30.18 in 10.0 mi WNW 9.2 mph - N/A   Clear
5:34 AM 33.8 °F 26.4 °F 21.2 °F 60% 30.18 in 10.0 mi WNW 9.2 mph - N/A   Clear
5:54 AM 33.8 °F 26.4 °F 21.2 °F 60% 30.19 in 10.0 mi WNW 9.2 mph - N/A   Clear
6:14 AM 33.8 °F 27.7 °F 21.2 °F 60% 30.19 in 10.0 mi WNW 6.9 mph - N/A   Clear
6:34 AM 32.0 °F 24.8 °F 23.0 °F 69% 30.19 in 10.0 mi WNW 8.1 mph - N/A   Clear
6:54 AM 32.0 °F 24.8 °F 23.0 °F 69% 30.20 in 10.0 mi WNW 8.1 mph - N/A   Mostly Cloudy
7:14 AM 33.8 °F 27.7 °F 23.0 °F 65% 30.20 in 10.0 mi WNW 6.9 mph - N/A   Overcast
7:34 AM 32.0 °F 25.6 °F 23.0 °F 69% 30.21 in 10.0 mi NW 6.9 mph - N/A   Mostly Cloudy
7:54 AM 32.0 °F 24.2 °F 24.8 °F 75% 30.21 in 10.0 mi NW 9.2 mph - N/A   Mostly Cloudy
8:14 AM 32.0 °F 25.6 °F 24.8 °F 75% 30.22 in 10.0 mi WNW 6.9 mph - N/A   Mostly Cloudy
8:34 AM 33.8 °F 27.0 °F 24.8 °F 70% 30.22 in 10.0 mi NW 8.1 mph - N/A   Overcast
8:54 AM 33.8 °F 26.4 °F 24.8 °F 70% 30.23 in 10.0 mi NW 9.2 mph - N/A   Overcast
9:14 AM 35.6 °F 27.5 °F 24.8 °F 65% 30.23 in 10.0 mi NW 11.5 mph - N/A   Overcast
9:34 AM 35.6 °F 28.0 °F 24.8 °F 65% 30.23 in 10.0 mi NW 10.4 mph - N/A   Overcast
9:55 AM 37.4 °F 30.3 °F 24.8 °F 60% 30.23 in 10.0 mi NW 10.4 mph - N/A   Overcast
10:14 AM 37.4 °F 30.3 °F 24.8 °F 60% 30.24 in 10.0 mi NW 10.4 mph - N/A   Overcast
10:34 AM 39.2 °F 32.5 °F 24.8 °F 56% 30.24 in 10.0 mi NW 10.4 mph - N/A   Overcast
10:54 AM 39.2 °F 32.0 °F 24.8 °F 56% 30.24 in 10.0 mi NW 11.5 mph - N/A   Overcast
11:14 AM 39.2 °F 32.5 °F 24.8 °F 56% 30.24 in 10.0 mi NW 10.4 mph - N/A   Overcast
11:34 AM 41.0 °F 35.2 °F 24.8 °F 53% 30.25 in 10.0 mi NW 9.2 mph - N/A   Overcast
11:54 AM 42.8 °F 36.2 °F 24.8 °F 49% 30.25 in 10.0 mi NNW 12.7 mph - N/A   Overcast
12:14 PM 42.8 °F 37.0 °F 24.8 °F 49% 30.25 in 10.0 mi NW 10.4 mph - N/A   Overcast
12:34 PM 44.6 °F 39.7 °F 23.0 °F 43% 30.25 in 10.0 mi WNW 9.2 mph - N/A   Overcast
12:54 PM 44.6 °F 42.2 °F 23.0 °F 43% 30.24 in 10.0 mi NNW 4.6 mph - N/A   Overcast
1:14 PM 46.4 °F 41.9 °F 21.2 °F 37% 30.24 in 10.0 mi NNW 9.2 mph 18.4 mph N/A   Overcast
1:34 PM 46.4 °F 41.5 °F 21.2 °F 37% 30.24 in 10.0 mi NW 10.4 mph - N/A   Overcast
1:54 PM 46.4 °F 42.4 °F 19.4 °F 34% 30.23 in 10.0 mi NNW 8.1 mph - N/A   Overcast
2:14 PM 48.2 °F - 19.4 °F 32% 30.22 in 10.0 mi North 6.9 mph - N/A   Overcast
2:34 PM 48.2 °F - 19.4 °F 32% 30.22 in 10.0 mi Calm Calm - N/A   Overcast
2:54 PM 48.2 °F - 21.2 °F 34% 30.21 in 10.0 mi ENE 9.2 mph - N/A   Overcast
3:14 PM 48.2 °F - 21.2 °F 34% 30.21 in 10.0 mi ENE 5.8 mph - N/A   Overcast
3:34 PM 48.2 °F - 21.2 °F 34% 30.21 in 10.0 mi SE 5.8 mph - N/A   Overcast
3:54 PM 42.8 °F 37.0 °F 30.2 °F 61% 30.21 in 10.0 mi South 10.4 mph - N/A   Overcast
4:14 PM 42.8 °F 38.0 °F 30.2 °F 61% 30.21 in 10.0 mi South 8.1 mph - N/A   Overcast
4:34 PM 42.8 °F 37.0 °F 30.2 °F 61% 30.21 in 10.0 mi South 10.4 mph - N/A   Overcast
4:54 PM 44.6 °F 39.7 °F 28.4 °F 53% 30.21 in 10.0 mi South 9.2 mph - N/A   Overcast
5:14 PM 42.8 °F 37.0 °F 30.2 °F 61% 30.20 in 10.0 mi South 10.4 mph - N/A   Overcast
5:34 PM 44.6 °F 40.2 °F 28.4 °F 53% 30.20 in 10.0 mi South 8.1 mph - N/A   Overcast
5:55 PM 46.4 °F 42.4 °F 26.6 °F 46% 30.20 in 10.0 mi South 8.1 mph - N/A   Overcast
6:14 PM 41.0 °F 36.4 °F 30.2 °F 65% 30.21 in 10.0 mi South 6.9 mph - N/A   Overcast
6:34 PM 41.0 °F 36.4 °F 30.2 °F 65% 30.21 in 10.0 mi South 6.9 mph - N/A   Overcast
6:54 PM 41.0 °F 36.4 °F 30.2 °F 65% 30.21 in 10.0 mi South 6.9 mph - N/A   Overcast
7:14 PM 41.0 °F 38.0 °F 30.2 °F 65% 30.21 in 10.0 mi South 4.6 mph - N/A   Overcast
7:34 PM 41.0 °F 37.1 °F 30.2 °F 65% 30.21 in 10.0 mi South 5.8 mph - N/A   Overcast
7:54 PM 39.2 °F 35.0 °F 30.2 °F 70% 30.21 in 10.0 mi South 5.8 mph - N/A   Overcast
8:14 PM 39.2 °F 37.0 °F 32.0 °F 75% 30.22 in 10.0 mi South 3.5 mph - N/A   Overcast
8:34 PM 39.2 °F 37.0 °F 32.0 °F 75% 30.22 in 10.0 mi South 3.5 mph - N/A   Overcast
8:54 PM 39.2 °F - 32.0 °F 75% 30.22 in 10.0 mi Calm Calm - N/A   Overcast
9:14 PM 39.2 °F - 32.0 °F 75% 30.22 in 10.0 mi Calm Calm - N/A   Overcast
9:34 PM 39.2 °F - 33.8 °F 81% 30.22 in 10.0 mi Calm Calm - N/A   Overcast
9:54 PM 39.2 °F - 32.0 °F 75% 30.23 in 10.0 mi Calm Calm - N/A   Overcast
10:14 PM 39.2 °F - 32.0 °F 75% 30.23 in 10.0 mi Calm Calm - N/A   Overcast
10:35 PM 39.2 °F - 33.8 °F 81% 30.24 in 10.0 mi Calm Calm - N/A   Overcast
10:54 PM 39.2 °F - 33.8 °F 81% 30.23 in 10.0 mi Calm Calm - N/A   Overcast
11:14 PM 39.2 °F - 32.0 °F 75% 30.23 in 10.0 mi Calm Calm - N/A   Overcast
11:34 PM 39.2 °F - 32.0 °F 75% 30.24 in 10.0 mi Calm Calm - N/A   Overcast
11:54 PM 37.4 °F - 33.8 °F 87% 30.24 in 10.0 mi Calm Calm - N/A   Overcast